Location: Austin
(30.3000°N, 97.7500°W)
Time: 03:22:07
(UTC-05:00)

ATLAS 2AS CENTAUR R/B - Pass Details

Date: 01 October 2024
Orbit: 1024 x 1187 km, 63.7° (Epoch: 06 October)

Event Time Altitude Azimuth Distance (km) Brightness Sun altitude
Rises 22:17:57 0° 335° (NNW) 3,829 6.1 -39.5°
Reaches altitude 10° 22:20:39 10° 339° (NNW) 2,855 5.3 -40.0°
Enters shadow 22:23:01 23° 345° (NNW) 2,047 4.4 -40.5°
